{"data":{"norad_id":53071,"epoch":"2026-05-25T02:05:05.648352Z","epoch_age_seconds":61562,"freshness":"FRESH","line1":"1 53071U 22077AE  26145.08687093  .00000168  00000+0  15711-4 0  9996","line2":"2 53071  97.4467 326.2204 0001546  87.6925 272.4479 15.05646247212489","mean_motion":15.05646247,"eccentricity":0.0001546,"inclination_deg":97.4467,"raan_deg":326.2204,"arg_perigee_deg":87.6925,"mean_anomaly_deg":272.4479,"bstar":1.5711e-5,"rev_number":21248,"period_min":95.639995308938,"perigee_km":548.45164983408,"apogee_km":550.59368220281,"semimajor_km":6927.6596660184,"source":"CELESTRAK","updated_at":"2026-05-25T13:38:17.311721Z"}}